This demonstration page uses our WeatherBlox Daily Observations layout. Learn more.

39.92423, -83.80882

Hourly Observations for July 11, 2020

Temp ( °F °C ) Dew Point ( °F °C ) Humidity (%) Winds ( mph kmh ) Pressure ( in mb ) Visibility ( mi km ) Precip ( " mm )
12:56 am 00:56 Clear 71 21.7 66 18.9 84 84 W 10 17 29.83 1010 10 16.0934 0 0
1:56 am 01:56 Clear 71 21.7 66 18.9 84 84 W 10 17 29.83 1010 10 16.0934 0 0
2:56 am 02:56 Clear 70 21.1 67 19.4 90 90 W 9 15 29.82 1010 10 16.0934 0 0
3:56 am 03:56 Clear 69 20.6 66 18.9 90 90 W 12 19 29.83 1010 10 16.0934 0 0
4:56 am 04:56 Clear 68 20 66 18.9 93 93 W 10 17 29.83 1010 10 16.0934 0 0
5:56 am 05:56 Clear 67 19.4 66 18.9 97 97 W 10 17 29.85 1011 10 16.0934 0 0
6:56 am 06:56 Sunny 67 19.4 66 18.9 97 97 W 10 17 29.85 1011 10 16.0934 0 0
7:56 am 07:56 Sunny 71 21.7 67 19.4 87 87 W 12 19 29.87 1012 10 16.0934 0 0
8:56 am 08:56 Sunny 74 23.3 66 18.9 76 76 WNW 14 22 29.88 1012 10 16.0934 0 0
9:56 am 09:56 Sunny 76 24.4 67 19.4 74 74 NNW 14 22 29.89 1012 10 16.0934 0 0
10:56 am 10:56 Mostly Sunny 79 26.1 68 20 69 69 WNW 10 17 29.88 1012 10 16.0934 0 0
11:56 am 11:56 Mostly Cloudy 81 27.2 65 18.3 58 58 WNW 13 20 29.88 1012 10 16.0934 0 0
12:56 pm 12:56 Mostly Cloudy 82 27.8 64 17.8 55 55 WNW 15 24 29.88 1012 10 16.0934 0 0
1:56 pm 13:56 Mostly Cloudy 84 28.9 64 17.8 51 51 WNW 18 30 29.87 1012 10 16.0934 0 0
2:56 pm 14:56 Partly Cloudy 85 29.4 64 17.8 50 50 W 12 19 29.86 1011 10 16.0934 0 0
3:56 pm 15:56 Partly Cloudy 86 30 63 17.2 46 46 W 17 28 29.86 1011 10 16.0934 0 0
4:56 pm 16:56 Partly Cloudy 86 30 63 17.2 46 46 WNW 16 26 29.85 1011 10 16.0934 0 0
5:56 pm 17:56 Partly Cloudy 84 28.9 63 17.2 49 49 WNW 9 15 29.84 1011 10 16.0934 0 0
6:56 pm 18:56 Mostly Sunny 84 28.9 63 17.2 49 49 W 16 26 29.82 1010 10 16.0934 0 0
7:56 pm 19:56 Sunny 80 26.7 65 18.3 60 60 WSW 6 9 29.81 1010 10 16.0934 0 0
8:56 pm 20:56 Sunny 77 25 65 18.3 66 66 WSW 6 9 29.82 1010 10 16.0934 0 0
9:56 pm 21:56 Clear 76 24.4 65 18.3 69 69 W 8 13 29.84 1011 10 16.0934 0 0
10:56 pm 22:56 Cloudy 74 23.3 65 18.3 74 74 W 10 17 29.85 1011 10 16.0934 0 0
11:56 pm 23:56 Clear 71 21.7 64 17.8 79 79 W 8 13 29.83 1010 10 16.0934 0.001 0.001

Powered by AerisWeather